• Processing (Info)

  • MPEC 2013-M32 : 2013 MD6

    The following Minor Planet Electronic Circular may be linked-to from your own Web pages, but must not otherwise be redistributed electronically.

    A form allowing access to any MPEC is at the bottom of this page.


    Read MPEC 2013-M31 Read MPEC 2013-M33


    M.P.E.C. 2013-M32                                Issued 2013 June 21, 20:59 UT
    
         The Minor Planet Electronic Circulars contain information on unusual
             minor planets and routine data on comets.  They are published
       on behalf of Commission 20 of the International Astronomical Union by the
              Minor Planet Center, Smithsonian Astrophysical Observatory,
                              Cambridge, MA 02138, U.S.A.
    
                 Prepared using the Tamkin Foundation Computer Network
    
                                  MPC@CFA.HARVARD.EDU
                URL http://www.minorplanetcenter.net/    ISSN 1523-6714
    
                                       2013 MD6
    
    Observations:
         K13M06D* C2013 06 19.39057 17 23 58.007-06 56 48.18         19.1 iLEM032F51
         K13M06D  C2013 06 19.40129 17 23 53.048-06 57 47.16         19.1 iLEM032F51
         K13M06D  C2013 06 19.41248 17 23 47.885-06 58 48.45         19.4 rLEM032F51
         K13M06D  C2013 06 19.42251 17 23 43.253-06 59 43.10         19.3 rLEM032F51
         K13M06D KC2013 06 19.94970317 19 48.56 -07 47 06.0          19.7 VqEM032K91
         K13M06D KC2013 06 19.95296617 19 47.07 -07 47 23.6          19.6 VqEM032K91
         K13M06D KC2013 06 19.95623117 19 45.57 -07 47 41.4          19.9 VqEM032K91
         K13M06D KC2013 06 19.95969817 19 43.98 -07 48 00.2          19.8 VqEM032K91
         K13M06D |C2013 06 20.22121 17 17 47.79 -08 11 45.3          19.6 VuEM032807
         K13M06D |C2013 06 20.22371 17 17 46.65 -08 11 59.0          19.6 VuEM032807
         K13M06D |C2013 06 20.22621 17 17 45.50 -08 12 12.5          19.5 VuEM032807
         K13M06D |C2013 06 20.22871 17 17 44.37 -08 12 26.3          19.4 VuEM032807
         K13M06D |C2013 06 20.23120 17 17 43.21 -08 12 39.7          19.5 VuEM032807
         K13M06D  C2013 06 20.89775 17 12 49.72 -09 13 37.3          19.7 RuEM032K57
         K13M06D  C2013 06 20.90154 17 12 48.00 -09 13 57.8          19.5 RuEM032K57
         K13M06D  C2013 06 20.90648 17 12 45.76 -09 14 24.4          19.8 RuEM032K57
         K13M06D |C2013 06 21.15541 17 10 55.88 -09 35 55.1          20.0 VuEM032807
         K13M06D |C2013 06 21.15792 17 10 54.73 -09 36 08.3          19.9 VuEM032807
         K13M06D |C2013 06 21.16140 17 10 53.16 -09 36 27.1          19.9 VuEM032807
    
    Observer details:
    807 Cerro Tololo.  Observers T. Linder, R. Holmes.  0.41-m f/11
        Ritchey-Chretien + CCD.
    F51 Pan-STARRS 1, Haleakala.  Observers N. Primak, A. Schultz, S. Watters,
        T. Goggia, K. Chambers.  Measurer PS1 Science Consortium.  1.8-m
        Ritchey-Chretien + CCD.
    K57 Fiore Observatory.  Observer T. Pupat.  Measurers T. Pupat, V. Gonano.
        0.38-m f/4.4 Newtonian reflector + CCD.
    K91 Sutherland-LCOGT A.  Observer T. Lister.  1.0-m f/8 Ritchey-Chretien + CCD.
    
    Orbital elements:
    2013 MD6                                                 Earth MOID = 0.2083 AU
    Epoch 2013 Apr. 18.0 TT = JDT 2456400.5                 MPC
    M  85.19278              (2000.0)            P               Q
    n   1.24943575     Peri.    1.62381     -0.05853551     -0.87634737
    a   0.8537422      Node    91.93003     +0.91043221     -0.24332046
    e   0.4352841      Incl.   28.57972     +0.40949578     +0.41570476
    P   0.79           H   21.7           G   0.15           U   8
    Residuals in seconds of arc
    130619 F51  0.1+  0.1+    130619 K91  0.1+  0.2+    130620 K57  0.0   0.0
    130619 F51  0.1-  0.1-    130620 807  0.1-  0.1+    130620 K57  0.0   0.0
    130619 F51  0.0   0.1-    130620 807  0.0   0.1-    130621 807  0.0   0.1-
    130619 F51  0.0   0.1+    130620 807  0.1-  0.0     130621 807  0.1-  0.1+
    130619 K91  0.0   0.0     130620 807  0.1+  0.2-    130621 807  0.1+  0.0
    130619 K91  0.1+  0.1+    130620 807  0.2-  0.1-
    130619 K91  0.1+  0.1+    130620 K57  0.0   0.0
    
    Ephemeris:
    2013 MD6                 a,e,i = 0.85, 0.44, 29                  q = 0.4821
    Date    TT    R. A. (2000) Decl.     Delta      r     Elong.  Phase     V
    2013 05 22    19 57 56.3 +21 04 18   0.3187  1.1496   107.6    57.1    21.6
    ...
    2013 06 06    18 55 39.9 +11 09 46   0.2363  1.1943   135.3    36.7    20.4
    ...
    2013 06 14    18 03 35.5 +01 09 42   0.2120  1.2100   154.2    21.4    19.8
    ...
    2013 06 20    17 19 27.0 -07 51 53   0.2103  1.2182   162.3    14.6    19.6
    2013 06 21    17 12 04.5 -09 22 10   0.2116  1.2193   162.1    14.8    19.6
    2013 06 22    17 04 45.9 -10 51 06   0.2133  1.2203   161.4    15.4    19.6
    ...
    2013 06 28    16 23 31.4 -18 55 43   0.2320  1.2243   150.8    23.9    20.1
    ...
    2013 07 06    15 39 32.3 -26 50 43   0.2746  1.2249   134.5    36.3    20.8
    ...
    2013 07 21    14 53 07.8 -35 10 05   0.3813  1.2113   111.9    51.1    21.9
    
    A. U. Tomatic                (C) Copyright 2013 MPC           M.P.E.C. 2013-M32
    

    Read MPEC 2013-M31 Read MPEC 2013-M33


    MPEC number:

    Enter an MPEC number in one of the following forms:

    • 1997-B01 (the full form)
    • J97B01 (the packed version of the full form)
    • B01 (the abbreviated form)